Date String (YYYY-MM-DD hh:mm:ss) UTC,Instrument flags,Ambient pressure (hPa),Sample flow (lpm),Bypass flow (lpm),Sample temperature (°C),Ambient temperature (°C),ASC tube jacket temperature (°C),LED temperature (°C),Box temperature (°C),Sample RH (%),Span deviation,Mass concentration (μg/m³),Mass concentration (μg/m³),Mass concentration (μg/m³)
DateTimeUTC,F1_M11,P_M11,Q1_M11,Q2_M11,T1_M11,T2_M11,T3_M11,T4_M11,T5_M11,U1_M11,ZSPAN_M11,X0_M11,X2_M11,X1_M11
2022-03-11 09:00:00,,0826.7,5.00,0.00,22.0,21.3,00.0,31.1,23.5,05.9,0000.8,0012.96,0009.29,0008.93
2022-03-11 09:01:00,,0826.8,5.00,0.00,21.9,21.4,00.0,31.1,23.5,05.9,0000.7,0013.43,0009.40,0009.05
2022-03-11 09:02:00,,0826.8,5.01,0.00,22.0,22.1,00.0,31.2,23.7,05.9,0000.8,0014.33,0009.52,0009.15
2022-03-11 09:03:00,,0826.8,5.00,0.00,22.2,22.7,00.0,31.2,24.0,05.9,0000.8,0014.50,0009.66,0009.29
2022-03-11 09:04:00,,0826.8,4.99,0.00,22.3,23.0,00.0,31.2,24.2,05.9,0000.8,0014.53,0009.75,0009.40
2022-03-11 09:05:00,,0826.7,5.00,0.00,22.3,22.7,00.0,31.2,24.1,05.9,0001.0,0014.16,0009.84,0009.48
2022-03-11 09:06:00,,0826.8,4.99,0.00,22.3,22.4,00.0,31.2,24.0,06.0,0001.1,0014.15,0009.87,0009.52
2022-03-11 09:07:00,,0827.0,5.01,0.00,22.2,22.0,00.0,31.2,23.8,05.9,0001.7,0014.23,0009.87,0009.50
2022-03-11 09:08:00,,0826.9,5.00,0.00,22.1,21.7,00.0,31.2,23.7,05.9,0001.5,0014.15,0009.76,0009.38
2022-03-11 09:09:00,,0826.8,5.00,0.00,22.0,21.4,00.0,31.2,23.5,05.9,0001.5,0014.21,0009.76,0009.36
2022-03-11 09:10:00,,0826.7,5.00,0.00,21.9,21.2,00.0,31.1,23.4,06.0,0001.4,0014.38,0009.86,0009.43
2022-03-11 09:11:00,,0826.8,5.01,0.00,22.0,21.6,00.0,31.1,23.5,06.0,0001.3,0014.43,0009.89,0009.45
2022-03-11 09:12:00,,0826.8,5.00,0.00,22.1,22.3,00.0,31.2,23.8,05.9,0001.0,0014.29,0009.92,0009.46
2022-03-11 09:13:00,,0826.9,5.00,0.00,22.2,22.9,00.0,31.2,24.1,05.7,0000.8,0013.49,0009.92,0009.42
2022-03-11 09:14:00,,0826.8,5.01,0.00,22.3,22.9,00.0,31.2,24.2,05.7,0001.2,0013.50,0009.89,0009.38
2022-03-11 09:15:00,,0826.8,4.99,0.00,22.3,22.5,00.0,31.2,24.1,05.7,0001.1,0013.47,0009.86,0009.35
2022-03-11 09:16:00,,0826.8,5.01,0.00,22.2,22.2,00.0,31.2,23.9,05.7,0001.2,0013.54,0009.83,0009.31
2022-03-11 09:17:00,,0826.8,4.98,0.00,22.1,21.8,00.0,31.2,23.7,05.7,0001.3,0013.57,0009.83,0009.28
2022-03-11 09:18:00,,0826.8,5.00,0.00,22.1,21.5,00.0,31.2,23.6,05.6,0000.9,0013.42,0009.81,0009.27
2022-03-11 09:19:00,,0826.8,5.01,0.00,22.0,21.3,00.0,31.1,23.4,05.7,0001.0,0013.44,0009.84,0009.32
2022-03-11 09:20:00,,0826.8,4.99,0.00,22.0,21.6,00.0,31.1,23.6,05.7,0000.9,0013.43,0009.86,0009.35
2022-03-11 09:21:00,,0826.8,5.01,0.00,22.1,22.3,00.0,31.2,23.8,05.7,0000.5,0013.40,0009.87,0009.38
2022-03-11 09:22:00,,0826.8,5.00,0.00,22.2,22.9,00.0,31.2,24.1,05.7,0000.8,0013.97,0009.93,0009.43
2022-03-11 09:23:00,,0826.8,4.99,0.00,22.3,22.9,00.0,31.2,24.2,05.7,0001.4,0014.17,0010.00,0009.51
2022-03-11 09:24:00,,0826.7,4.99,0.00,22.3,22.6,00.0,31.2,24.1,05.8,0001.9,0014.24,0010.05,0009.59
2022-03-11 09:25:00,,0826.7,5.00,0.00,22.3,22.2,00.0,31.2,23.9,05.7,0001.8,0014.31,0010.09,0009.63
2022-03-11 09:26:00,,0826.7,5.00,0.00,22.2,21.8,00.0,31.2,23.8,05.6,0001.7,0014.37,0010.12,0009.65
2022-03-11 09:27:00,,0826.7,5.00,0.00,22.1,21.5,00.0,31.2,23.6,05.6,0001.1,0014.47,0010.16,0009.66
2022-03-11 09:28:00,,0826.7,5.00,0.00,22.0,21.3,00.0,31.2,23.5,05.6,0000.8,0014.49,0010.19,0009.68
2022-03-11 09:29:00,,0826.7,5.00,0.00,21.9,21.3,00.0,31.1,23.4,05.7,0000.9,0014.57,0010.23,0009.72
2022-03-11 09:30:00,,0826.6,4.98,0.00,22.0,21.9,00.0,31.1,23.6,05.7,0001.1,0014.62,0010.28,0009.77
2022-03-11 09:31:00,,0826.6,5.02,0.00,22.1,22.5,00.0,31.2,23.9,05.8,0001.3,0014.67,0010.33,0009.81
2022-03-11 09:32:00,,0826.7,4.98,0.00,22.3,23.1,00.0,31.2,24.1,05.8,0001.3,0014.69,0010.35,0009.84
2022-03-11 09:33:00,,0826.6,5.01,0.00,22.4,23.2,00.0,31.3,24.2,05.8,0001.5,0014.19,0010.37,0009.86
2022-03-11 09:34:00,,0826.6,5.00,0.00,22.4,22.8,00.0,31.3,24.1,05.8,0001.5,0014.15,0010.39,0009.87
2022-03-11 09:35:00,,0826.5,4.99,0.00,22.3,22.4,00.0,31.3,24.0,05.9,0001.1,0014.19,0010.42,0009.89
2022-03-11 09:36:00,,0826.5,5.01,0.00,22.3,22.1,00.0,31.2,23.9,06.0,0001.2,0014.22,0010.45,0009.93
2022-03-11 09:37:00,,0826.5,4.99,0.00,22.2,21.7,00.0,31.2,23.8,06.0,0001.3,0014.23,0010.47,0009.96
2022-03-11 09:38:00,,0826.5,5.01,0.00,22.1,21.5,00.0,31.2,23.6,06.1,0001.3,0014.09,0010.47,0009.99
2022-03-11 09:39:00,,0826.5,5.00,0.00,22.0,21.2,00.0,31.2,23.5,06.0,0000.8,0014.06,0010.49,0010.05
2022-03-11 09:40:00,,0826.5,5.00,0.00,22.0,21.4,00.0,31.2,23.5,06.0,0000.5,0014.42,0010.53,0010.10
2022-03-11 09:41:00,,0826.5,4.99,0.00,22.1,22.1,00.0,31.2,23.8,05.9,0000.4,0014.62,0010.54,0010.13
2022-03-11 09:42:00,,0826.5,5.00,0.00,22.2,22.8,00.0,31.2,24.0,05.9,0000.2,0014.80,0010.58,0010.15
2022-03-11 09:43:00,,0826.5,5.01,0.00,22.4,23.2,00.0,31.3,24.2,05.9,-000.0,0015.06,0010.59,0010.16
2022-03-11 09:44:00,,0826.5,5.00,0.00,22.4,23.0,00.0,31.3,24.2,05.8,-000.3,0015.04,0010.60,0010.18
2022-03-11 09:45:00,,0826.5,5.00,0.00,22.4,22.6,00.0,31.3,24.1,05.9,-000.5,0015.04,0010.61,0010.21
2022-03-11 09:46:00,,0826.5,5.01,0.00,22.3,22.2,00.0,31.3,23.9,05.9,-000.4,0015.02,0010.64,0010.24
2022-03-11 09:47:00,,0826.5,5.00,0.00,22.2,21.8,00.0,31.2,23.8,05.9,-000.3,0014.98,0010.64,0010.25
2022-03-11 09:48:00,,0826.5,4.99,0.00,22.1,21.5,00.0,31.2,23.6,05.9,-000.6,0015.11,0010.70,0010.28
2022-03-11 09:49:00,,0826.4,5.00,0.00,22.0,21.2,00.0,31.2,23.5,05.9,-000.4,0015.22,0010.75,0010.32
2022-03-11 09:50:00,,0826.4,5.01,0.00,21.9,21.1,00.0,31.2,23.3,05.9,0000.1,0015.18,0010.76,0010.34
2022-03-11 09:51:00,,0826.5,5.00,0.00,22.0,21.5,00.0,31.2,23.5,05.9,0000.5,0014.88,0010.75,0010.34
2022-03-11 09:52:00,,0826.5,4.99,0.00,22.1,22.2,00.0,31.2,23.8,05.9,0000.6,0014.63,0010.79,0010.36
2022-03-11 09:53:00,,0826.5,5.00,0.00,22.2,22.8,00.0,31.2,24.0,05.9,0000.7,0014.51,0010.77,0010.36
2022-03-11 09:54:00,,0826.4,5.00,0.00,22.3,22.8,00.0,31.2,24.1,05.8,0000.8,0014.14,0010.73,0010.34
2022-03-11 09:55:00,,0826.4,4.99,0.00,22.3,22.5,00.0,31.2,24.0,05.6,0001.1,0014.12,0010.66,0010.27
2022-03-11 09:56:00,,0826.4,5.00,0.00,22.2,22.1,00.0,31.2,23.9,05.6,0001.0,0014.26,0010.60,0010.20
2022-03-11 09:57:00,,0826.4,5.00,0.00,22.1,21.8,00.0,31.2,23.7,05.5,0001.1,0014.22,0010.49,0010.07
2022-03-11 09:58:00,,0826.4,5.00,0.00,22.1,21.5,00.0,31.2,23.6,05.5,0000.8,0014.26,0010.44,0010.00
2022-03-11 09:59:00,,0826.3,5.01,0.00,22.0,21.3,00.0,31.1,23.5,05.5,0000.9,0014.06,0010.35,0009.92
